Regional Weather Roundup
Issued by NWS

Home | Current Version | Previous Version | Graphics & Text | Print | Product List | Glossary Off
Versions: 1 2 3 4 5 6 7 8 9 10 11 12 13 14 15 16 17 18 19 20 21 22 23 24 25 26 27 28 29 30 31 32 33 34 35 36 37 38 39 40 41 42 43 44 45 46 47 48 49 50

000
ASUS43 KTOP 280259
RWRKS

WEATHER ROUNDUP FOR KANSAS
NATIONAL WEATHER SERVICE GOODLAND KS
1000 PM CDT MON APR 27 2015

NOTE:  "FAIR" INDICATES FEW OR NO CLOUDS BELOW 12,000 FEET WITH NO
SIGNIFICANT WEATHER AND/OR OBSTRUCTIONS TO VISIBILITY.

KSZ001>006-013>018-027>032-041>047-280400-
NORTHWEST KANSAS

CITY           SKY/WX    TMP DP  RH WIND       PRES   REMARKS
GOODLAND       PTCLDY    46  34  62 NE5       30.24R
HAYS           PTCLDY    46  30  53 N6        30.16S
HILL CITY      PTCLDY    44  37  76 NE7       30.19R
RUSSELL        PTCLDY    50  35  56 NE5       30.15R
$$

KSZ061>065-074>080-084>089-280400-
SOUTHWEST KANSAS

CITY           SKY/WX    TMP DP  RH WIND       PRES   REMARKS
DODGE CITY     MOCLDY    45  34  65 NE10      30.16R
ELKHART          N/A     47  36  66 N6          N/A
GARDEN CITY    CLOUDY    48  30  49 NE10      30.17R
GREAT BEND     MOCLDY    50  36  57 NE6       30.15R
LIBERAL        CLOUDY    45  39  81 NW6       30.18R
$$

KSZ066>073-081>083-090>101-280400-
SOUTHEAST KANSAS

CITY           SKY/WX    TMP DP  RH WIND       PRES   REMARKS
CHANUTE        CLOUDY    55  39  54 N5        30.08R
COFFEYVILLE    CLOUDY    56  40  55 N9        30.05R
HUTCHINSON     CLOUDY    49  38  65 N3        30.13R
MEDICINE LODGE   N/A     53  40  61 NE5       30.11R
NEWTON         CLOUDY    52  37  58 N6        30.13R
PARSONS        CLOUDY    56  40  55 N5        30.07R
WICHITA INTL   CLOUDY    58  36  43 NE9       30.10R
WICHITA JABRA  CLOUDY    54  37  52 NE8       30.10R
WINFIELD       CLOUDY    55  38  52 NE5       30.09R
$$

KSZ007>012-019>026-033>040-048>060-102>105-280400-
NORTHEAST KANSAS

CITY           SKY/WX    TMP DP  RH WIND       PRES   REMARKS
CONCORDIA      PTCLDY    51  37  58 N6        30.15R
EMPORIA        CLOUDY    53  35  50 N6        30.10R
LAWRENCE       CLEAR     47  39  74 NW5       30.11R
MANHATTAN      CLEAR     49  38  65 CALM      30.12R
OLATHE IND     FAIR      48  37  65 N7        30.11R
OLATHE EXE     FAIR      57  36  45 N5        30.09R
SALINA         PTCLDY    51  37  58 N7        30.13R
TOPEKA BILLARD PTCLDY    52  38  58 CALM      30.12R
TOPEKA FORBES  PTCLDY    51  38  60 N5        30.11R
$$



USA.gov is the U.S. government's official web portal to all federal, state and local government web resources and services.